Weather in Chertanovka

Russia / Ulyanovsk Oblast     53°49′28″N   47°49′02″E
temp.,
°C
wind,
m/s
gust,
m/s
humid.,
%
clouds,
%
prec.,
mm/h
press.,
hPa
HPBL,
m
28 september, tue
tue2801:00+6ne6880100 0.0 1018639
04:00+4ne5887100 0.0 1020728
07:00+4ne6888100 0.1 1021834
10:00+5ne696994 0.1 10231048
13:00+8ne785630 0.0 10241302
16:00+8ne785013 0.0 10251455
19:00+6nne596185 0.0 1027443
22:00+3n38725 0.0 1028199
29 september, wed
wed2901:00+3n387799 0.0 1029189
04:00+2n388184 0.0 1029180
07:00+2n388269 0.0 1030194
10:00+6nne47675 0.0 1030670
13:00+9nne564927 0.0 10301565
16:00+9nne56475 0.0 10291590
19:00+5nne22635 0.0 103028
22:00+4n237112 0.0 103143
30 september, thu
thu3001:00+4nnw2272100 0.0 103033
04:00+4nnw347387 0.0 1031109
07:00+3nnw357868 0.0 1031121
10:00+5n3785100 0.0 1032761
13:00+7nnw347493 0.0 1032688
16:00+9nw3462100 0.1 1031987
19:00+6nw368027 0.1 1031213
22:00+5wnw2285100 0.1 103253
1 october, fri
fri101:00+7w3678100 0.0 1031158
04:00+7w3780100 0.0 1031224
07:00+7wnw3881100 0.0 1031247
10:00+9wnw3679100 0.0 1031214
13:00+13nw346054 0.0 10311134
16:00+13nw356198 0.0 1031625
19:00+12nw356843 0.0 1031107
22:00+9nw22805 0.0 103221
2 october, sat
sat201:00+7wnw22845 0.0 103213
04:00+7wnw22875 0.0 103212
07:00+6nw22905 0.0 103312
10:00+11nnw247558 0.0 1033331
13:00+12nnw347199 0.0 1033601
16:00+12nnw347399 0.0 1033421
19:00+10nnw2484100 0.0 1033142
22:00+10n2287100 0.0 103476